Tracking 27420 objects as of 10-Jun-2023
HD Live streaming from Space Station
objects crossing your sky now

SL-8 DEB

Track SL-8 DEB now!
10-day predictions


NORAD ID: 19048
Int'l Code: 1988-029C
Perigee: 680.3 km
Apogee: 694.7 km
Inclination: 74.0 °
Period: 98.4 minutes
Semi major axis: 7058 km
RCS: 0.0085 m2 (small)
Launch date: April 5, 1988
Source: Commonwealth of Independent States (former USSR) (CIS)
Launch site: PLESETSK MISSILE AND SPACE COMPLEX (PKMTR)

Note: This is SATELLITE DEBRIS
Your satellite tracking list
Your tracking list is empty




NASA's NSSDC Master Catalog

Two Line Element Set (TLE):
1 19048U 88029C   23160.75798451  .00002928  00000-0  56411-3 0  9998
2 19048  74.0240  58.8991 0010190  25.0018  30.5037 14.63987408861461
Source of the keplerian elements: AFSPC